METEOSAT 5 (MOP 2) 1 21140U 91015B 09181.84776721 -.00000178 00000-0 10000-3 0 8243 2 21140 010.9496 048.9939 0003961 130.6943 229.3077 00.98453256 69216 NOAA 12 1 21263U 91032A 09183.96949769 +.00000012 +00000-0 +23963-4 0 01991 2 21263 098.7715 192.0355 0013495 098.5043 261.7667 14.25583837942645 METEOSAT 6 1 22912U 93073B 09183.86771380 -.00000026 00000-0 10000-3 0 1398 2 22912 008.4083 059.7143 0000960 353.2049 247.8846 01.00271188 55626 NOAA 14 1 23455U 94089A 09183.74066950 -.00000155 +00000-0 -58481-4 0 06751 2 23455 098.9082 261.3668 0010120 142.5099 217.6771 14.13764358748128 HIMAWARI 5 (GMS 5) 1 23522U 95011B 09182.57993767 -.00000197 00000-0 10000-3 0 2897 2 23522 007.5593 062.7182 0007438 329.7746 030.0831 00.99404635 52081 GOES 10 1 24786U 97019A 09183.22324924 -.00000286 +00000-0 +10000-3 0 09836 2 24786 003.6696 074.3876 0002051 033.2422 192.8036 01.00278673044650 ORBVIEW 2 (SEASTAR) 1 24883U 97037A 09183.90533599 +.00000044 +00000-0 +19074-4 0 08593 2 24883 098.3429 307.8993 0002001 129.0324 231.1052 14.59994184634736 METEOSAT 7 1 24932U 97049B 09183.89976124 .00000064 00000-0 10000-3 0 6009 2 24932 005.2378 069.4236 0000786 032.9632 199.9727 01.00266891 43344 NOAA 15 1 25338U 98030A 09183.71352162 +.00000215 +00000-0 +11064-3 0 09903 2 25338 098.5842 172.5796 0010970 019.1037 341.0540 14.24770592578989 GOES 11 1 26352U 00022A 09184.59505234 .00000093 00000-0 10000-3 0 3852 2 26352 000.4407 262.8093 0002004 270.8476 186.7644 01.00268125 33574 FENGYUN 2B 1 26382U 00032A 09182.06345247 -.00000353 +00000-0 +10000-3 0 01793 2 26382 004.3729 072.3046 0004222 202.3776 157.3784 01.00096164033005 NOAA 16 1 26536U 00055A 09183.66341395 -.00000255 +00000-0 -11279-3 0 04677 2 26536 099.1759 187.7036 0009698 233.9345 126.0918 14.12522361452484 GOES 12 1 26871U 01031A 09184.36829697 -.00000249 00000-0 10000-3 0 1229 2 26871 000.0685 098.5079 0004681 348.9556 251.9532 01.00271523 29168 FENGYUN 1D 1 27431U 02024B 09183.76554196 -.00000199 +00000-0 -90427-4 0 06139 2 27431 098.6263 172.8384 0015589 013.7567 346.3998 14.09280962367002 NOAA 17 1 27453U 02032A 09183.80933826 -.00000036 +00000-0 +25903-5 0 04717 2 27453 098.4827 242.3409 0012830 080.1382 280.1215 14.24073471364972 MSG 1 1 27509U 02040B 09181.94349475 .00000062 00000-0 10000-3 0 3393 2 27509 000.6210 034.2011 0008990 314.7565 279.3378 01.00270720 25131 KALPANA 1 (METSAT 1) 1 27525U 02043A 09183.85498020 -.00000076 00000-0 10000-3 0 9928 2 27525 000.0984 097.5025 0008653 348.1680 217.1188 01.00271867 24954 INSAT 3A 1 27714U 03013A 09183.80243677 -.00000256 00000-0 10000-3 0 6733 2 27714 000.0550 262.5954 0005501 188.6078 212.1181 01.00270956 22858 FENGYUN 2C 1 28451U 04042A 09183.85166450 -.00000330 +00000-0 +00000-0 0 05865 2 28451 001.4364 077.2708 0001338 110.4820 144.4423 01.00274961017204 MTSAT-1R 1 28622U 05006A 09183.34911193 -.00000279 00000-0 10000-3 0 2034 2 28622 000.0439 149.3252 0002180 157.2151 239.7059 01.00271358 15904 NOAA 18 1 28654U 05018A 09183.78638805 -.00000115 +00000-0 -39159-4 0 09603 2 28654 098.9061 126.9047 0013679 323.0171 037.0062 14.11266782212159 MSG 2 1 28912U 05049B 09183.92253747 .00000000 00000-0 10000-3 0 5316 2 28912 000.4133 265.7607 0000490 116.7967 230.7394 01.00275122 13000 MTSAT-2 1 28937U 06004A 09181.55211771 -.00000245 00000-0 10000-3 0 5911 2 28937 000.0544 074.4954 0002383 352.7377 195.2400 01.00268908 12364 FORMOSAT 3A 1 29047U 06011A 09183.70976035 -.00000189 +00000-0 -59858-4 0 09919 2 29047 071.9812 349.6456 0051244 118.0293 242.6047 14.27108482169940 FORMOSAT 3B 1 29048U 06011B 09183.74157683 +.00000390 +00000-0 +17471-3 0 00382 2 29048 071.9703 265.0299 0044325 066.5525 294.0236 14.27116925172422 FORMOSAT 3C 1 29049U 06011C 09183.68844891 +.00000361 +00000-0 +16364-3 0 09792 2 29049 072.0215 054.2943 0035249 131.2365 229.1784 14.27128196168193 FORMOSAT 3D 1 29050U 06011D 09183.74970826 +.00001098 +00000-0 +26646-3 0 02637 2 29050 072.0079 231.2587 0052784 013.2381 346.9884 14.54048384173504 FORMOSAT 3E 1 29051U 06011E 09183.86001499 +.00000372 +00000-0 +16522-3 0 00423 2 29051 072.0079 322.9237 0069810 357.9080 002.1715 14.27121216170807 FORMOSAT 3F 1 29052U 06011F 09183.90818932 +.00000360 +00000-0 +16273-3 0 00584 2 29052 072.0371 024.9015 0040551 099.7649 260.8052 14.27119180169115 GOES 13 1 29155U 06018A 09182.50939146 -.00000085 +00000-0 +10000-3 0 06618 2 29155 000.1242 232.1185 0001924 307.9384 177.4468 01.00271488011397 METOP-A 1 29499U 06044A 09183.80699440 -.00000451 00000-0 -18633-3 0 8465 2 29499 098.6855 243.7202 0001065 091.5802 268.5465 14.21494463140237 FENGYUN 2D 1 29640U 06053A 09183.73732899 -.00000195 00000-0 10000-3 0 6889 2 29640 000.2614 234.5771 0000832 357.3030 040.8007 01.00276445 9455 FENGYUN 3A 1 32958U 08026A 09183.77295432 +.00000167 +00000-0 +10000-3 0 03456 2 32958 098.7687 255.1060 0001405 084.4039 275.7270 14.19590684056997 NOAA 19 1 33591U 09005A 09183.76977404 +.00000176 +00000-0 +12202-3 0 01637 2 33591 098.7450 129.1247 0013822 195.0982 164.9794 14.10968021020635